Regional Weather Roundup
Issued by NWS

Home | Current Version | Previous Version | Graphics & Text | Print | Product List | Glossary On
Versions: 1 2 3 4 5 6 7 8 9 10 11 12 13 14 15 16 17 18 19 20 21 22 23 24 25 26 27 28 29 30 31 32 33 34 35 36 37 38 39 40 41 42 43 44 45 46 47 48 49 50
000
ASUS43 KOAX 292202
RWRNE

WEATHER ROUNDUP FOR NEBRASKA
NATIONAL WEATHER SERVICE OMAHA NE
500 PM CDT WED JUL 29 2015

NOTES: SATELLITE DATA IS BEING USED TO AUGMENT CLOUD COVER ABOVE
       12000 FEET.
       "FAIR" INDICATES FEW OR NO CLOUDS BELOW 12,000 FEET WITH NO
       SIGNIFICANT WEATHER AND/OR OBSTRUCTIONS TO VISIBILITY.

  * THESE STATIONS DO NOT REPORT WEATHER SUCH AS RAIN...SNOW OR FOG.

NEZ001>004-019>022-054>056-292300-
NEBRASKA PANHANDLE

CITY           SKY/WX    TMP DP  RH WIND       PRES   REMARKS
SCOTTSBLUFF    SUNNY     86  50  28 S9        30.20F
ALLIANCE       SUNNY     85  47  26 SW14      30.22F
CHADRON        SUNNY     84  47  27 VRB3      30.18F
KIMBALL        SUNNY     82  47  29 S17G23    30.26F
SIDNEY         SUNNY     84  46  26 S17G25    30.27F
$$

NEZ057>060-069>072-079>082-292300-
SOUTHWEST NEBRASKA

CITY           SKY/WX    TMP DP  RH WIND       PRES   REMARKS
NORTH PLATTE   SUNNY     83  46  27 S9        30.23F
IMPERIAL       SUNNY     84  48  28 S16G22    30.24F
MCCOOK         SUNNY     85  51  31 E8        30.22F
$$

NEZ005>010-023>029-035>040-094-292300-
NORTH CENTRAL NEBRASKA

CITY           SKY/WX    TMP DP  RH WIND       PRES   REMARKS
VALENTINE      PTSUNNY   87  42  20 W12       30.18F
AINSWORTH      SUNNY     84  45  25 SW10      30.20F
BROKEN BOW     SUNNY     84  50  30 NW3       30.22F
O`NEILL        SUNNY     85  46  25 W12G18    30.17F
ORD            SUNNY     85  45  24 W7        30.18F
$$

NEZ041-046>049-061>064-073>077-083>087-292300-
SOUTH CENTRAL NEBRASKA

CITY           SKY/WX    TMP DP  RH WIND       PRES   REMARKS
GRAND ISLAND   PTSUNNY   83  52  34 VRB5      30.22S
AURORA         CLOUDY    80  53  39 CALM      30.20F
HASTINGS       CLOUDY    80  48  32 NW3       30.23S
KEARNEY *      PTSUNNY   79  52  38 S5        30.23S
$$

NEZ011>018-030>034-042>045-292300-
NORTHEAST NEBRASKA

CITY           SKY/WX    TMP DP  RH WIND       PRES   REMARKS
NORFOLK        SUNNY     85  50  29 SW7       30.15F
BLAIR          MOSUNNY   81  55  41 NW3       30.15F
COLUMBUS *     PTSUNNY   84  52  32 NW5       30.16F
FREMONT        MOSUNNY   84  54  34 W9        30.16S
TEKAMAH        MOSUNNY   85  58  39 NW5       30.13F
$$

NEZ050>053-065>068-078-088>093-292300-
SOUTHEAST NEBRASKA

CITY           SKY/WX    TMP DP  RH WIND       PRES   REMARKS
LINCOLN        PTSUNNY   83  52  34 N7        30.18R
OMAHA EPPLEY   PTSUNNY   82  56  40 NW7       30.14F
FALLS CITY     PTSUNNY   83  65  54 CALM      30.16R
$$

NEZ044-045-051>053-067-292300-
OMAHA AREA

CITY           SKY/WX    TMP DP  RH WIND       PRES   REMARKS
OMAHA EPPLEY   PTSUNNY   82  56  40 NW7       30.14F
BLAIR          MOSUNNY   81  55  41 NW3       30.15F
FREMONT        MOSUNNY   84  54  34 W9        30.16S
OFFUTT AFB     MOSUNNY   80  56  43 NW7       30.14S
$$



USA.gov is the U.S. government's official web portal to all federal, state and local government web resources and services.